ASGARDIA 1 (43049 NORAD) Tracking and Keplerian Element Data

This shows tracking and keplerian element data for the satellite.

Feedback or suggestion? Click here.




ElementValue
Catalog43049
NameASGARDIA 1
Epoch Orbit7684
Epoch Day109.92899652
Epoch Year2019
RAAN344.5588
Inclination51.6401
Eccentricity0.0001893
Argument of Perigee334.2661
Mean Anonmoly25.823
Mean Motion15.40941645
Decay Rate3.083E-05
L11 43049U 17071N 19109.92899652 .00003083 00000-0 83401-4 0 9990
L22 43049 51.6401 344.5588 0001893 334.2661 25.8230 15.40941645 76846

Live tracking and technical data element details for ASGARDIA 1 (NORAD 43049). ASGARDIA 1 can be tracked NOW for your location showing map with azimuth and elevation plus other details from your city location.

Track the satellite on the map from your city or location and see movement details for azimuth, elevation, latitude, longitude, range, height, and movement on the map or in text.







IsCatalogInMostPopularTable: catalog: 43049, numindb: 227
Update: records affected: 1



GetName: 43049 ASGARDIA 1

Hit Count: updated at: Sat, 20 Apr 2019 20:09:50 GMT